STARLINK-1036, 44741

Orbit data source: Space-Track

STARLINK-1036, 44741 is a payload satellite owned by SpaceX/Seattle (US) in LEO that was launched on Mon, 11 Nov 2019 UTC via an FALCON 9 launch vehicle from the Air Force Eastern Test Range (AFETR). Payloads include a variety of satellites, spacecraft, and rockets equipped with specific instruments for various scientific and technological missions. These include communications satellites like Starlink; space stations such as the ISS; scientific satellites like the Hubble; Earth observation satellites from companies like Planet Labs, Umbra, and HawkEye 360; GPS; miniature CubeSats for education and research; and military/defense satellites.

Loading next visibility...
STARLINK-1036 details
Identifier
44741, 2019-074AE
Orbit
LEO
Last TLE update1 day ago
Origin
Flag of USSpaceX/Seattle (US)
ManufacturerSpaceX/Seattle
MissionOperational Commercial Communications
Bus & MotorSTARLINK, Unknown motor
Mass260 kg wet, ~248 kg dry
Launch date (UTC)
2019-11-11 (5 years ago)
Launch vehicle
FALCON 9
Launch site
Air Force Eastern Test Range (AFETR)
Object type
Payload
Rocket body
Debris
Shape & HBRBox + 1 Pan, 8.86 m
Radar Cross Section13.562 m², Large (>1 m²)

Expand to show TLE details & history

TLE from 1 day ago
0 STARLINK-1036
1 44741U 19074AE  24360.36495210  .00000769  00000-0  70543-4 0  9991
2 44741  53.0554  18.8233 0001533 100.0057 260.1105 15.06394133282253
Epoch: 2024-12-25T08:45Z
Definitive object data (Epoch: 2024-12-25T08:45:31.861Z)
Latitude-0.00002°
Longitude153.08078°
Altitude548.291 km
Speed7.589 km/s
True Right ascension01h 15m 17s
True Declination0° 00' 00"
Sunlit
Object was in daylight at TLE epoch
Visualization TLE readout
Latitude22.36546°
Longitude-49.73447°
Altitude547.187 km
Speed7.592 km/s
Apparent Right ascension14h 42m 27s
Apparent Declination-28° 55' 60"
Sunlit
Object is in daylight
Visualization observer readout
Local Sidereal Time10:15:38
Azimuth126.422° SE
Elevation-2.578°
Doppler factor1
Orbital elements
Apogee altitude548.562 km
Perigee altitude546.438 km
Semi-major axis6,925.637 km
Eccentricity0.0001533
Inclination53.0554°
RAAN18.8233°
Arg. of periapsis100.0057°
True anomaly260.09319°
Mean anomaly260.1105°
Eccentric anomaly260.10185°
Mean motion3.76577 °/min
BSTAR0.000070543
Orbital period95.6 mins
Loading maneuver chart data...

STARLINK-1036 Visibility forecast

Observer location: undefined°, undefined

Span
Click to sort rows by Start time (UTC) header in descending order
Start Az.
Max El. time (UTC)
Max El. Az.
Max El.
End time (UTC)
End Az.
4 mins2024-12-26 12:24:22.352Z264.861° W2024-12-26 12:26:22.352Z233.524° WSW14.658°2024-12-26 12:28:22.352Z202.409° SSW
7 mins2024-12-27 03:56:22.352Z233.04° WSW2024-12-27 03:59:22.352Z303.867° NW44.73°2024-12-27 04:03:22.352Z48.818° ENE
4 mins2024-12-27 05:38:22.352Z317.798° NNW2024-12-27 05:39:22.352Z337.689° N19.033°2024-12-27 05:42:22.352Z26.758° NE
4 mins2024-12-27 08:59:22.352Z349.409° N2024-12-27 09:01:22.352Z29.818° NE20.249°2024-12-27 09:03:22.352Z64.992° ENE
6 mins2024-12-27 10:38:22.352Z307.869° NW2024-12-27 10:41:22.352Z148.51° SSE43.502°2024-12-27 10:44:22.352Z133.574° SE
|